Time,TemperatureF,DewpointF,PressureIn,WindDirection,WindDirectionDegrees,WindSpeedMPH,WindSpeedGustMPH,Humidity,HourlyPrecipIn,Conditions,Clouds,dailyrainin,SoftwareType,DateUTC
2013-11-21 07:50:00,36.0,35.2,30.14,South,184,0.0,9.0,97,0.00,,,0.01,Wunderground v.1.15,2013-11-21 13:50:00,
2013-11-21 07:55:00,36.0,35.2,30.15,South,184,0.0,9.0,97,0.00,,,0.01,Wunderground v.1.15,2013-11-21 13:55:00,
2013-11-21 08:05:00,36.0,35.2,30.15,South,184,0.0,9.0,97,0.00,,,0.01,Wunderground v.1.15,2013-11-21 14:05:00,
2013-11-21 08:10:00,36.1,35.3,30.14,South,184,0.0,9.0,97,0.00,,,0.01,Wunderground v.1.15,2013-11-21 14:10:00,
2013-11-21 08:15:00,36.1,35.3,30.15,South,184,0.0,9.0,97,0.00,,,0.01,Wunderground v.1.15,2013-11-21 14:15:00,
2013-11-21 08:20:00,36.1,35.3,30.14,South,184,0.0,9.0,97,0.00,,,0.01,Wunderground v.1.15,2013-11-21 14:20:00,
2013-11-21 08:30:00,36.2,35.4,30.15,South,184,0.0,9.0,97,0.00,,,0.01,Wunderground v.1.15,2013-11-21 14:30:00,
2013-11-21 08:35:00,36.2,35.4,30.15,South,184,0.0,9.0,97,0.00,,,0.01,Wunderground v.1.15,2013-11-21 14:35:00,
2013-11-21 08:40:00,36.2,35.4,30.15,South,184,0.0,9.0,97,0.00,,,0.01,Wunderground v.1.15,2013-11-21 14:40:00,
2013-11-21 08:50:00,36.3,35.5,30.15,South,184,0.0,9.0,97,0.00,,,0.01,Wunderground v.1.15,2013-11-21 14:50:00,
2013-11-21 09:00:00,36.3,35.5,30.16,South,184,0.0,9.0,97,0.00,,,0.01,Wunderground v.1.15,2013-11-21 15:00:00,
2013-11-21 09:05:00,36.4,35.6,30.16,South,184,0.0,9.0,97,0.00,,,0.01,Wunderground v.1.15,2013-11-21 15:05:00,
2013-11-21 09:10:00,36.4,35.9,30.16,South,184,0.0,9.0,98,0.00,,,0.01,Wunderground v.1.15,2013-11-21 15:10:00,
2013-11-21 09:20:00,36.5,36.0,30.16,South,184,0.0,9.0,98,0.00,,,0.01,Wunderground v.1.15,2013-11-21 15:20:00,
2013-11-21 09:25:00,36.7,36.2,30.16,South,184,0.0,9.0,98,0.00,,,0.01,Wunderground v.1.15,2013-11-21 15:25:00,
2013-11-21 09:30:00,36.7,36.2,30.16,South,184,0.0,9.0,98,0.00,,,0.01,Wunderground v.1.15,2013-11-21 15:30:00,
2013-11-21 09:35:00,36.7,35.9,30.15,South,186,0.0,9.0,97,0.00,,,0.01,Wunderground v.1.15,2013-11-21 15:35:00,
2013-11-21 09:45:00,36.8,36.0,30.16,South,190,0.0,9.0,97,0.00,,,0.01,Wunderground v.1.15,2013-11-21 15:45:00,
2013-11-21 09:50:00,36.9,36.1,30.16,South,190,0.0,9.0,97,0.00,,,0.01,Wunderground v.1.15,2013-11-21 15:50:00,
2013-11-21 09:55:00,36.9,36.1,30.16,South,190,0.0,9.0,97,0.00,,,0.01,Wunderground v.1.15,2013-11-21 15:55:00,
2013-11-21 10:00:00,36.9,36.1,30.16,South,190,0.0,9.0,97,0.00,,,0.01,Wunderground v.1.15,2013-11-21 16:00:00,
2013-11-21 11:05:00,37.3,36.8,30.17,SW,219,1.0,9.0,98,0.00,,,0.01,Wunderground v.1.15,2013-11-21 17:05:00,
2013-11-21 11:10:00,37.4,36.9,30.16,SW,220,1.0,3.0,98,0.00,,,0.01,Wunderground v.1.15,2013-11-21 17:10:00,
2013-11-21 11:20:00,37.4,36.9,30.17,WSW,248,1.0,1.0,98,0.00,,,0.01,Wunderground v.1.15,2013-11-21 17:20:00,
2013-11-21 11:25:00,37.5,37.0,30.17,WSW,250,1.0,3.0,98,0.00,,,0.01,Wunderground v.1.15,2013-11-21 17:25:00,
2013-11-21 11:35:00,37.7,37.2,30.17,WSW,250,0.0,3.0,98,0.00,,,0.01,Wunderground v.1.15,2013-11-21 17:35:00,
2013-11-21 11:40:00,37.8,37.3,30.16,WSW,250,0.0,3.0,98,0.00,,,0.01,Wunderground v.1.15,2013-11-21 17:40:00,
2013-11-21 11:45:00,37.8,37.0,30.16,WSW,250,0.0,3.0,97,0.00,,,0.01,Wunderground v.1.15,2013-11-21 17:45:00,
2013-11-21 11:50:00,37.8,37.0,30.16,WSW,250,0.0,3.0,97,0.00,,,0.01,Wunderground v.1.15,2013-11-21 17:50:00,
2013-11-21 12:00:00,38.1,37.3,30.15,WSW,250,0.0,3.0,97,0.00,,,0.01,Wunderground v.1.15,2013-11-21 18:00:00,
2013-11-21 12:05:00,38.2,37.4,30.15,WSW,250,0.0,3.0,97,0.00,,,0.01,Wunderground v.1.15,2013-11-21 18:05:00,
2013-11-21 12:10:00,38.3,37.5,30.14,WSW,251,0.0,3.0,97,0.00,,,0.01,Wunderground v.1.15,2013-11-21 18:10:00,
2013-11-21 12:15:00,38.4,37.6,30.14,WSW,251,0.0,3.0,97,0.00,,,0.01,Wunderground v.1.15,2013-11-21 18:15:00,
2013-11-21 12:20:00,38.5,37.5,30.14,WSW,251,1.0,1.0,96,0.00,,,0.01,Wunderground v.1.15,2013-11-21 18:20:00,
2013-11-21 12:30:00,38.6,37.6,30.15,WSW,251,0.0,3.0,96,0.00,,,0.01,Wunderground v.1.15,2013-11-21 18:30:00,
2013-11-21 12:35:00,38.7,37.4,30.14,WSW,251,0.0,3.0,95,0.00,,,0.01,Wunderground v.1.15,2013-11-21 18:35:00,
2013-11-21 12:40:00,38.7,37.4,30.14,WSW,251,0.0,3.0,95,0.00,,,0.01,Wunderground v.1.15,2013-11-21 18:40:00,
2013-11-21 12:45:00,38.8,37.5,30.15,WSW,251,0.0,3.0,95,0.00,,,0.01,Wunderground v.1.15,2013-11-21 18:45:00,
2013-11-21 12:55:00,38.6,37.0,30.16,WSW,251,1.0,3.0,94,0.00,,,0.01,Wunderground v.1.15,2013-11-21 18:55:00,
2013-11-21 13:00:00,38.5,36.9,30.16,WSW,251,1.0,3.0,94,0.00,,,0.01,Wunderground v.1.15,2013-11-21 19:00:00,
2013-11-21 13:05:00,38.5,36.9,30.16,WSW,251,0.0,3.0,94,0.00,,,0.01,Wunderground v.1.15,2013-11-21 19:05:00,
2013-11-21 13:10:00,38.6,37.0,30.16,WNW,296,1.0,3.0,94,0.00,,,0.01,Wunderground v.1.15,2013-11-21 19:10:00,
2013-11-21 13:20:00,38.4,36.6,30.16,WNW,297,2.0,3.0,93,0.00,,,0.01,Wunderground v.1.15,2013-11-21 19:20:00,
2013-11-21 13:25:00,38.3,36.5,30.16,WNW,298,1.0,3.0,93,0.00,,,0.01,Wunderground v.1.15,2013-11-21 19:25:00,
2013-11-21 13:30:00,38.4,36.6,30.16,WNW,298,1.0,1.0,93,0.00,,,0.01,Wunderground v.1.15,2013-11-21 19:30:00,
2013-11-21 13:40:00,38.4,36.6,30.16,WNW,298,1.0,1.0,93,0.00,,,0.01,Wunderground v.1.15,2013-11-21 19:40:00,
2013-11-21 13:45:00,38.4,36.3,30.15,WNW,298,1.0,3.0,92,0.00,,,0.01,Wunderground v.1.15,2013-11-21 19:45:00,
2013-11-21 13:50:00,38.4,36.3,30.16,WNW,298,1.0,1.0,92,0.00,,,0.01,Wunderground v.1.15,2013-11-21 19:50:00,
2013-11-21 13:55:00,38.5,36.4,30.16,WNW,298,2.0,4.0,92,0.00,,,0.01,Wunderground v.1.15,2013-11-21 19:55:00,
2013-11-21 14:05:00,38.5,36.4,30.16,WNW,298,2.0,3.0,92,0.00,,,0.01,Wunderground v.1.15,2013-11-21 20:05:00,
2013-11-21 14:15:00,38.4,36.3,30.16,WNW,298,1.0,3.0,92,0.00,,,0.01,Wunderground v.1.15,2013-11-21 20:15:00,
2013-11-21 14:20:00,38.4,36.3,30.16,WNW,298,0.0,3.0,92,0.00,,,0.01,Wunderground v.1.15,2013-11-21 20:20:00,
2013-11-21 14:30:00,38.4,36.3,30.16,WNW,298,1.0,4.0,92,0.00,,,0.01,Wunderground v.1.15,2013-11-21 20:30:00,
2013-11-21 14:40:00,38.4,36.0,30.16,WNW,299,2.0,4.0,91,0.00,,,0.01,Wunderground v.1.15,2013-11-21 20:40:00,
2013-11-21 14:45:00,38.3,36.2,30.17,WNW,300,3.0,4.0,92,0.00,,,0.01,Wunderground v.1.15,2013-11-21 20:45:00,
2013-11-21 14:55:00,38.2,36.1,30.17,WNW,300,1.0,3.0,92,0.00,,,0.01,Wunderground v.1.15,2013-11-21 20:55:00,
2013-11-21 15:00:00,38.3,36.2,30.18,WNW,300,1.0,1.0,92,0.00,,,0.01,Wunderground v.1.15,2013-11-21 21:00:00,
2013-11-21 15:05:00,38.2,36.1,30.17,WNW,300,1.0,3.0,92,0.00,,,0.01,Wunderground v.1.15,2013-11-21 21:05:00,
2013-11-21 15:15:00,38.1,36.0,30.18,WNW,301,1.0,3.0,92,0.00,,,0.01,Wunderground v.1.15,2013-11-21 21:15:00,
2013-11-21 15:20:00,38.0,35.9,30.18,WNW,301,1.0,1.0,92,0.00,,,0.01,Wunderground v.1.15,2013-11-21 21:20:00,
2013-11-21 15:25:00,37.9,35.8,30.19,WNW,301,1.0,2.0,92,0.00,,,0.01,Wunderground v.1.15,2013-11-21 21:25:00,
2013-11-21 15:30:00,37.8,35.7,30.18,WNW,301,2.0,5.0,92,0.00,,,0.01,Wunderground v.1.15,2013-11-21 21:30:00,
2013-11-21 15:40:00,37.8,35.7,30.19,WNW,301,1.0,3.0,92,0.00,,,0.01,Wunderground v.1.15,2013-11-21 21:40:00,
2013-11-21 15:45:00,37.7,35.6,30.19,WNW,300,2.0,4.0,92,0.00,,,0.01,Wunderground v.1.15,2013-11-21 21:45:00,
2013-11-21 15:55:00,37.6,35.5,30.20,WNW,301,4.0,4.0,92,0.00,,,0.01,Wunderground v.1.15,2013-11-21 21:55:00,
2013-11-21 16:00:00,37.5,35.4,30.20,WNW,301,3.0,3.0,92,0.00,,,0.01,Wunderground v.1.15,2013-11-21 22:00:00,
2013-11-21 16:10:00,37.5,35.4,30.20,WNW,300,2.0,8.0,92,0.00,,,0.01,Wunderground v.1.15,2013-11-21 22:10:00,
2013-11-21 16:15:00,37.4,35.3,30.20,WNW,301,4.0,8.0,92,0.00,,,0.01,Wunderground v.1.15,2013-11-21 22:15:00,
2013-11-21 16:20:00,37.3,35.2,30.20,WNW,301,2.0,2.0,92,0.00,,,0.01,Wunderground v.1.15,2013-11-21 22:20:00,
2013-11-21 16:30:00,37.3,35.2,30.21,WNW,301,2.0,8.0,92,0.00,,,0.01,Wunderground v.1.15,2013-11-21 22:30:00,
2013-11-21 16:35:00,37.2,35.1,30.21,WNW,301,3.0,8.0,92,0.00,,,0.01,Wunderground v.1.15,2013-11-21 22:35:00,
2013-11-21 16:45:00,37.1,35.0,30.21,NW,305,3.0,7.0,92,0.00,,,0.01,Wunderground v.1.15,2013-11-21 22:45:00,
2013-11-21 16:50:00,37.0,34.9,30.21,NW,309,4.0,8.0,92,0.00,,,0.01,Wunderground v.1.15,2013-11-21 22:50:00,
2013-11-21 16:55:00,36.9,34.8,30.21,NW,307,5.0,8.0,92,0.00,,,0.01,Wunderground v.1.15,2013-11-21 22:55:00,
2013-11-21 17:05:00,36.9,34.8,30.21,NW,313,5.0,8.0,92,0.00,,,0.01,Wunderground v.1.15,2013-11-21 23:05:00,